Location: Maccacari
(45.1333°N, 11.1333°E)
Time: 03:20:55
(UTC+00:00)

Altair - Pass Details

Date: 29 January 2021
Orbit: 1501 x 1682 km, 47.2° (Epoch: 01 March)

Event Time Altitude Azimuth Distance (km) Brightness Sun altitude
Rises 09:08:54 0° 293° (WNW) 4,936 9.7 19.5°
Reaches altitude 10° 09:12:10 10° 289° (WNW) 3,949 9.3 19.8°
Maximum altitude 09:21:52 53° 217° (SW) 1,990 8.6 20.8°
Drops below altitude 10° 09:31:25 10° 144° (SE) 3,879 11.8 21.6°
Sets 09:34:37 0° 140° (SE) 4,842 11.6 21.9°
